Weather History for Twin Falls, ID

Change the Weather History Date:

Friday, July 12, 2013

  Actual Average Record
Temperature  
Mean Temperature 73 °F -  
Max Temperature 91 °F 89 °F 106 °F (2002)
Min Temperature 54 °F 58 °F 44 °F (1987)
Degree Days  
Heating Degree Days 0 0  
Month to date heating degree days 0 3  
Since 1 June heating degree days 55 90  
Since 1 July heating degree days 0 3  
Cooling Degree Days 8 9  
Month to date cooling degree days 169 89  
Year to date cooling degree days 367 198  
Since 1 June cooling degree days 342 176  
Growing Degree Days 22 (Base 50)    
Moisture  
Dew Point 48 °F    
Average Humidity 48    
Maximum Humidity 72    
Minimum Humidity 23    
Precipitation  
Precipitation T in 0.01 in 0.25 in (1985)
Month to date precipitation 0.16 0.13  
Year to date precipitation 3.19 6.39  
Sea Level Pressure  
Sea Level Pressure 29.81 in    
Wind  
Wind Speed 7 mph (ESE)    
Max Wind Speed 28 mph    
Max Gust Speed 36 mph    
Visibility 10 miles    
Events Rain , Thunderstorm    
T = Trace of Precipitation, MM = Missing Value Source: NWS Daily Summary

Daily Weather History Graph

Daily Weather History Graph

Search for Another Location

Airport:

Trip Planner

Search our weather history database for the weather conditions in past years. The results will help you decide how hot, cold, wet, or windy it might be!

Date:

Astronomy

Jul. 12, 2013 Rise Set
Actual Time 6:11 AM MDT 9:14 PM MDT
Civil Twilight 5:38 AM MDT 9:48 PM MDT
Nautical Twilight 4:54 AM MDT 10:31 PM MDT
Astronomical Twilight 4:03 AM MDT 11:23 PM MDT
Moon 10:39 AM MDT (7/12) 11:20 PM MDT (7/12)
Length of Visible Light 16h 10m
Length of Day
15h 02m
Waxing Crescent, 18% of the Moon is Illuminated
Jul 12
Waxing Crescent
Jul 15
First Quarter
Jul 22
Full
Jul 29
Last Quarter
Aug 6
New

Hourly Weather History & Observations

Time (MDT) Temp. Heat Index Dew Point Humidity Pressure Visibility Wind Dir Wind Speed Gust Speed Precip Events Conditions
12:53 AM 70.0 °F - 50.0 °F 49% 29.80 in 10.0 mi ESE 15.0 mph - N/A   Clear
1:53 AM 66.0 °F - 50.0 °F 56% 29.83 in 10.0 mi Calm Calm - N/A   Clear
2:53 AM 61.0 °F - 48.9 °F 64% 29.83 in 10.0 mi ESE 8.1 mph - N/A   Clear
3:53 AM 57.0 °F - 48.0 °F 72% 29.85 in 10.0 mi Calm Calm - N/A   Clear
4:53 AM 55.9 °F - 46.9 °F 72% 29.85 in 10.0 mi SE 5.8 mph - N/A   Clear
5:53 AM 57.9 °F - 46.9 °F 67% 29.84 in 10.0 mi SSE 8.1 mph - N/A   Clear
6:53 AM 59.0 °F - 48.9 °F 69% 29.84 in 10.0 mi SSE 8.1 mph - N/A   Clear
7:53 AM 70.0 °F - 52.0 °F 53% 29.83 in 10.0 mi South 6.9 mph - N/A   Clear
8:53 AM 77.0 °F - 48.0 °F 36% 29.82 in 10.0 mi South 12.7 mph - N/A   Clear
9:53 AM 75.9 °F - 57.0 °F 52% 29.83 in 10.0 mi NNE 5.8 mph - N/A   Clear
10:53 AM 81.0 °F 80.7 °F 55.0 °F 41% 29.83 in 10.0 mi NE 6.9 mph - N/A   Clear
11:53 AM 84.0 °F - 51.1 °F 32% 29.82 in 10.0 mi NE 5.8 mph - N/A   Clear
12:53 PM 82.9 °F - 48.9 °F 31% 29.81 in 10.0 mi Calm Calm - N/A Thunderstorm Mostly Cloudy
1:26 PM 77.0 °F - 44.6 °F 32% 29.97 in 10.0 mi SE 24.2 mph 34.5 mph 0.00 in Rain , Thunderstorm Light Rain
1:50 PM 82.4 °F - 42.8 °F 25% 29.97 in 10.0 mi ESE 8.1 mph - 0.00 in   Partly Cloudy
1:53 PM 82.9 °F - 42.1 °F 24% 29.80 in 10.0 mi SE 9.2 mph - 0.00 in   Partly Cloudy
2:53 PM 84.0 °F - 46.0 °F 26% 29.79 in 10.0 mi ENE 12.7 mph - N/A   Clear
3:53 PM 82.0 °F - 51.1 °F 34% 29.78 in 10.0 mi NE 10.4 mph - N/A   Clear
4:53 PM 88.0 °F - 52.0 °F 29% 29.75 in 10.0 mi NE 8.1 mph - N/A   Clear
5:53 PM 89.1 °F - 46.0 °F 22% 29.72 in 10.0 mi ENE 9.2 mph - N/A   Clear
6:53 PM 84.0 °F - 51.1 °F 32% 29.72 in 10.0 mi NE 8.1 mph - N/A   Clear
7:08 PM 82.4 °F - 51.8 °F 35% 29.88 in 10.0 mi East 5.8 mph - N/A   Partly Cloudy
7:53 PM 84.0 °F - 51.1 °F 32% 29.70 in 10.0 mi ENE 8.1 mph - N/A   Clear
8:53 PM 75.0 °F - 55.0 °F 50% 29.70 in 10.0 mi East 3.5 mph - N/A   Clear
9:53 PM 64.0 °F - 50.0 °F 60% 29.74 in 10.0 mi SSE 6.9 mph - N/A   Clear
10:53 PM 68.0 °F - 39.9 °F 36% 29.73 in 10.0 mi South 11.5 mph - N/A   Clear
11:53 PM 68.0 °F - 33.1 °F 27% 29.73 in 10.0 mi South 10.4 mph - N/A   Clear